Terug naar catalogus

STARLINK-31951

ActiefCommunicatieVLEO
NORAD 59890·PAYLOAD·🇺🇸 United States

Gelanceerd May 28, 2024 vanaf Cape Canaveral Space Force Station

Loading…

Volgende Passages (komende 24 uur)

TLE

VersSource: CelesTrak SupGP

Epoch: Sep 15, 2026, 01:50 UTC

1 59890C 24100F   26258.07687500  .00029421  00000+0  10659-2 0  2582
2 59890  42.9996 135.6350 0001528 271.1458  85.6912 15.27556183    14

Volg STARLINK-31951 in realtime met AllMySat

Download on the App Store